TimeCDT,TemperatureF,Dew PointF,Humidity,Sea Level PressureIn,VisibilityMPH,Wind Direction,Wind SpeedMPH,Gust SpeedMPH,PrecipitationIn,Events,Conditions,WindDirDegrees,DateUTC
12:53 AM,71.1,68.0,90,30.15,10.0,NW,4.6,-,N/A,,Overcast,320,2013-05-25 05:53:00
1:53 AM,71.1,68.0,90,30.14,10.0,NNW,4.6,-,N/A,,Overcast,330,2013-05-25 06:53:00
2:15 AM,71.6,66.2,83,30.15,10.0,NNW,3.5,-,N/A,,Overcast,330,2013-05-25 07:15:00
2:53 AM,72.0,68.0,87,30.12,10.0,Calm,Calm,-,N/A,,Overcast,0,2013-05-25 07:53:00
3:09 AM,71.6,66.2,83,30.15,10.0,Calm,Calm,-,N/A,,Scattered Clouds,0,2013-05-25 08:09:00
3:53 AM,71.1,66.9,87,30.13,10.0,NE,4.6,-,N/A,,Scattered Clouds,40,2013-05-25 08:53:00
4:53 AM,71.1,68.0,90,30.14,10.0,ENE,5.8,-,N/A,,Partly Cloudy,70,2013-05-25 09:53:00
5:53 AM,71.1,66.9,87,30.14,10.0,ENE,5.8,-,N/A,,Mostly Cloudy,70,2013-05-25 10:53:00
6:53 AM,71.1,66.0,84,30.14,10.0,East,8.1,-,N/A,,Clear,90,2013-05-25 11:53:00
7:53 AM,72.0,66.0,81,30.14,10.0,ESE,10.4,-,N/A,,Clear,120,2013-05-25 12:53:00
8:53 AM,73.0,66.0,79,30.16,10.0,ESE,12.7,-,N/A,,Clear,110,2013-05-25 13:53:00
9:53 AM,75.0,66.9,76,30.18,10.0,ESE,11.5,-,N/A,,Partly Cloudy,120,2013-05-25 14:53:00
10:53 AM,75.9,68.0,76,30.18,10.0,SE,9.2,-,N/A,,Clear,130,2013-05-25 15:53:00
11:53 AM,80.1,69.1,69,30.17,10.0,SE,8.1,-,N/A,,Partly Cloudy,130,2013-05-25 16:53:00
12:53 PM,82.0,68.0,62,30.16,10.0,South,10.4,-,N/A,,Scattered Clouds,190,2013-05-25 17:53:00
1:53 PM,82.9,69.1,63,30.14,10.0,SSE,9.2,-,N/A,,Scattered Clouds,150,2013-05-25 18:53:00
2:53 PM,84.9,69.1,59,30.12,10.0,SSE,10.4,-,N/A,,Partly Cloudy,150,2013-05-25 19:53:00
3:53 PM,86.0,68.0,55,30.10,10.0,SSE,9.2,-,N/A,,Clear,150,2013-05-25 20:53:00
4:53 PM,84.0,68.0,58,30.08,10.0,South,6.9,-,N/A,,Mostly Cloudy,170,2013-05-25 21:53:00
5:53 PM,82.9,66.9,58,30.08,10.0,South,8.1,-,N/A,,Scattered Clouds,180,2013-05-25 22:53:00
6:53 PM,81.0,66.9,62,30.07,10.0,South,4.6,-,N/A,,Clear,170,2013-05-25 23:53:00
7:53 PM,79.0,68.0,69,30.07,10.0,South,4.6,-,N/A,,Clear,170,2013-05-26 00:53:00
8:53 PM,78.1,69.1,74,30.08,10.0,SE,8.1,-,N/A,,Mostly Cloudy,140,2013-05-26 01:53:00
9:53 PM,75.9,64.9,69,30.09,10.0,SE,12.7,-,N/A,,Clear,140,2013-05-26 02:53:00
10:53 PM,73.0,64.9,76,30.10,10.0,SE,11.5,-,N/A,,Mostly Cloudy,130,2013-05-26 03:53:00
11:53 PM,73.0,64.0,73,30.10,10.0,SSE,10.4,-,N/A,,Partly Cloudy,150,2013-05-26 04:53:00